Погода в Беверли Хиллсе

США     34°04′39″N   118°24′14″W
темп.,
°C
ветер,
м/с
пор.,
м/с
влажн.,
%
обл.,
%
осадки,
мм/ч
давл.,
гПа
погр.,
м
19 апреля, пн
пн1923:00+21сз33330 0.0 101545
02:00+20с22330 0.0 101514
05:00+19с22330 0.0 101513
08:00+20юв11400 0.0 101667
11:00+24ю21315 0.0 1016414
14:00+21юз45437 0.0 1015348
17:00+21юз45420 0.0 1013293
20:00+18ююз22560 0.0 1013100
20 апреля, вт
вт2023:00+16юв22700 0.0 1014140
02:00+16юв22720 0.0 1013131
05:00+16в12710 0.0 101269
08:00+16вюв34700 0.0 1013295
11:00+20ююв55540 0.0 1013598
14:00+20ююв55490 0.0 1012623
17:00+18ю4360100 0.0 1010552
20:00+16ююв237410 0.0 1010405
21 апреля, ср
ср2123:00+15юв447884 0.0 1011574
02:00+15юв5672100 0.1 1011847
05:00+14вюв4574100 0.4 1010761
08:00+14вюв456775 0.2 1012785
11:00+16юв445641 0.2 10131088
14:00+17ю546273 0.0 10121103
17:00+16ююз436958 0.1 1011815
20:00+14ююз227743 0.0 1012499
22 апреля, чт
чт2223:00+13юз3379100 0.0 1013444
02:00+13ююз227787 0.1 1012460
05:00+13юз1178100 0.1 1012326
08:00+14ююз117487 0.0 1014354
11:00+16ююз326163 0.0 1014885
14:00+16юз546311 0.0 1014691
17:00+16юз44641 0.0 1012594
20:00+15зюз44730 0.0 1013321
23 апреля, пт
пт2323:00+14зюз22750 0.0 1014280
02:00+13юз22781 0.0 1014333
05:00+13ю228241 0.0 1015400
08:00+13ююв2275100 0.0 1016615
11:00+14ююз327490 0.1 1017615
14:00+16ююз426570 0.0 1016665
17:00+15ююз43718 0.0 1015515
20:00+13юз227915 0.0 1016366